Other Public Products
Issued by NWS Grand Forks, ND

Home | Current Version | Previous Version | Graphics & Text | Print | Product List | Glossary On
Versions: 1 2 3 4 5 6 7 8 9 10 11 12 13 14 15 16 17 18 19 20 21 22 23 24 25 26 27 28 29 30 31 32 33 34 35 36 37 38 39 40 41 42 43 44 45 46 47 48 49 50
290
FPUS83 KFGF 151031
OPUFGF
PRAIRIE TO PINES WEATHER ROUNDUP
NATIONAL WEATHER SERVICE EASTERN NORTH DAKOTA/GRAND FORKS ND
400 AM CST FRI DEC 15 2017

 **SATELLITE DATA USED TO AUGMENT SKY COVER AT AUTOMATED STATIONS**
 *****  WEATHER ACROSS EASTERN NORTH DAKOTA  *****

CITY           SKY/WX    TMP DP  RH WIND       PRES   REMARKS
GRAND FORKS    CLOUDY    19  14  81 CALM      29.94F
GRND FORKS AFB CLOUDY    18  12  78 CALM      29.93F
GRND FORKS NWS   N/A     18 N/A N/A MISG        N/A
BUXTON           N/A     18  17  94 CALM        N/A
DEVILS LAKE    FLURRIES  22  20  92 S7        29.87F WCI  13
FARGO          CLOUDY    20  17  88 N3        29.94F
WAHPETON ARPT  CLOUDY    23  19  86 N6        29.94S WCI  16
$$

 *****  WEATHER ACROSS CENTRAL AND WESTERN NORTH DAKOTA  *****

CITY           SKY/WX    TMP DP  RH WIND       PRES   REMARKS
JAMESTOWN      FLURRIES  23  22  96 SE8       29.87F WCI  14
BISMARCK       MOCLDY    29  24  82 W7        29.91F WCI  22
MINOT          CLOUDY    30  22  72 SW6       29.83F WCI  24
MINOT AFB      FAIR      28  23  80 SW5       29.81F WCI  23
GARRISON         N/A     27  23  85 W5        29.86F WCI  22
WILLISTON      FAIR      28  22  78 S3        29.81F
DICKINSON      FAIR      26  22  84 SW7       29.83F WCI  18
HETTINGER      FAIR      22  18  85 NW5       29.88F WCI  16
$$

 *****  OTHER OBSERVATIONS NORTHEAST NORTH DAKOTA  *****

CITY           SKY/WX    TMP DP  RH WIND       PRES   REMARKS
WALHALLA       FAIR      16  18 100 CALM      29.90F
LANGDON        CLOUDY    18  18 100 SE8       29.85F WCI   7
CAVALIER       CLOUDY    16  12  86 E5        29.92F WCI   9
GRAFTON        PTSUNNY   16  12  86 NE6       29.95F WCI   7
CANDO          CLOUDY    21  23 100 S7        29.87F WCI  13
FORT TOTTEN      N/A     22  20  94 S7        29.95S WCI  13
ROLLA          CLOUDY    21  21 100 S9        29.83F WCI  11
RUGBY          CLOUDY    27  25  93 W3        29.83F
 ***** THE ABOVE OBSERVATIONS ARE NON NWS ARE NOT QUALITY
        CONTROLLED AND MAY MIS-REPORT RAIN FOR SNOW...
$$

 *****  OTHER OBSERVATIONS SOUTHEAST NORTH DAKOTA *****

CITY           SKY/WX    TMP DP  RH WIND       PRES   REMARKS
COOPERSTOWN    FLURRIES  19  19 100 SE9       29.89F WCI   9
VALLEY CITY    FLURRIES  19  19 100 SE7       29.90F WCI  10
OAKES            N/A     23  23 100 E8        29.91F WCI  14
GWINNER          N/A     21  21 100 NE9       29.91F WCI  11
SHEYENNE NWR     N/A     21  21  99 NE3       29.95S
BUFFALO          N/A     20  16  84 NE5         N/A  WCI  13
WYNDMERE       NOT AVBL
 ***** THE ABOVE OBSERVATIONS ARE NON NWS ARE NOT QUALITY
       CONTROLLED AND MAY MIS-REPORT RAIN FOR SNOW...
$$

  *****  WEATHER ACROSS NORTHERN MINNESOTA  *****

CITY           SKY/WX    TMP DP  RH WIND       PRES   REMARKS
FLAG ISLAND    CLOUDY     9   3  78 NW7       29.89F WCI  -3
WARROAD        CLOUDY     9   3  78 N3        29.90F
ROSEAU         CLOUDY     9   3  78 N3        29.90F
HALLOCK        CLOUDY    10   9  92 CALM      29.93F
THF RVR FALLS  CLOUDY    11   8  88 W5        29.93S WCI   3
HALSTAD        NOT AVBL
FOSSTON        CLOUDY     9   5  85 CALM      29.91F
BAUDETTE       CLOUDY     9   4  80 N9        29.89S WCI  -4
WASKISH        CLOUDY    10   7  85 N5        29.90S WCI   2
CROOKSTON      CLOUDY    16  12  86 W3        29.95F
$$
  *****  WEATHER ACROSS CENTRAL AND WEST MINNESOTA  *****

CITY           SKY/WX    TMP DP  RH WIND       PRES   REMARKS
BEMIDJI        LGT SNOW   9   5  83 NW8       29.89R WCI  -3
PARK RAPIDS    CLOUDY    16  11  80 W6        29.87F WCI   7
WADENA         CLOUDY    16  14  93 NW3       29.89F
DETROIT LAKES  CLOUDY    19  18  93 N7        29.90F WCI  10
MOORHEAD       CLOUDY    19  16  86 CALM      29.94F
FERGUS FALLS   CLOUDY    19  16  86 N3        29.95F
ELBOW LAKE     CLOUDY    23  20  89 NE8       29.91F WCI  13
MORRIS MN      CLOUDY    27  25  93 N6        29.89F WCI  20
STAPLES        CLOUDY    16  12  86 N7        29.89F WCI   6
WHEATON        CLOUDY    25  21  86 N9        29.95S WCI  15
$$
  *****  WEATHER ELSEWHERE ACROSS MINNESOTA  *****

CITY           SKY/WX    TMP DP  RH WIND       PRES   REMARKS
DULUTH         LGT SNOW  11   8  88 NW12      29.83S FOG     WCI  -3
INTRNTL FALLS  LGT SNOW   9   3  77 NW8       29.88S WCI  -3
ELY            FLURRIES   9   3  78 NW6       29.81F WCI  -1
CLOQUET        FLURRIES  14   9  79 NW6       29.85S WCI   5
BRAINERD       CLOUDY    17  11  77 N6        29.90F WCI   9
HIBBING        FLURRIES  10   5  80 NW14      29.85F WCI  -6
ALEXANDRIA     CLOUDY    22  19  89 N6        29.89F WCI  14
SAINT CLOUD    CLOUDY    21  18  88 CALM      29.91F
MINNEAPOLIS    CLOUDY    24  20  84 W5        29.93F WCI  18
$$

  *****  WEATHER ACROSS SOUTH DAKOTA  *****

CITY           SKY/WX    TMP DP  RH WIND       PRES   REMARKS
SIOUX FALLS    CLOUDY    31  27  85 W7        29.97F WCI  24
BROOKINGS      NOT AVBL
WATERTOWN      CLOUDY    30  27  88 NW7       29.89F WCI  23
HURON          CLOUDY    33  27  78 W12       29.96F WCI  24
SISSETON         N/A     28  27  96 N8        29.91S WCI  20
ABERDEEN       CLOUDY    33  27  78 W8        29.93F
MITCHELL       FAIR      33  27  78 W13       29.99F WCI  24
PIERRE         FAIR      28  23  81 W10       29.96F WCI  19
MOBRIDGE       FAIR      30  23  75 NW7       29.89F WCI  23
RAPID CITY     FAIR      15   9  76 W5        29.95F WCI   8
$$

  *****  SOME WEATHER IN NEARBY STATES *****

CITY           SKY/WX    TMP DP  RH WIND       PRES   REMARKS
GLASGOW MT     FAIR      22  20  92 CALM      29.80F
GREAT FALLS MT FAIR      39  16  39 SW24G35   29.91F
CHEYENNE WY    FAIR      32  11  41 W14       30.07F WCI  22
SCOTTSBLUFF NE FAIR      12   9  87 NW7       30.07F WCI   1
OMAHA NE       CLOUDY    33  24  69 SW5       30.10F
DES MOINES IA  CLOUDY    28  23  81 SW6       30.05F WCI  22
DAVENPORT IA   CLOUDY    26  19  74 W12       30.01S WCI  16
CHICAGO IL     CLOUDY    25  16  68 SW12      29.92F WCI  14
EAU CLAIRE WI  CLOUDY    19  12  74 W13       29.89S WCI   6
LA CROSSE WI   CLOUDY    26  15  63 W15G24    29.92S WCI  14
$$

  *****  SOME NATIONAL WEATHER *****

CITY           SKY/WX    TMP DP  RH WIND       PRES   REMARKS
LA GUARDIA NY  MOCLDY    23   8  52 NW8       30.09F WCI  14
RALEIGH NC     CLOUDY    35  27  72 E6        30.00F
ATLANTA GA     MOCLDY    39  33  79 NW6       29.99R
NEW ORLEANS LA CLOUDY    53  47  79 N8        30.06R
OKLAHOMA CITY  FAIR      32  27  81 NW13      30.25R WCI  22
ALBUQUERQUE NM FAIR      28  15  58 N8        30.33R WCI  20
SALT LAKE CITY FAIR      27  23  85 SE7       30.39F WCI  19
LOS ANGELES CA FAIR      57  33  40 E3        30.11R
BOISE ID       CLOUDY    26  24  92 S9        30.43F WCI  17
SEATTLE WA     MOCLDY    39  32  76 CALM      30.19S
$$

*** WEATHER ACROSS MANITOBA...SASKATCHEWAN AND ONTARIO ***
                ***ONTARIO***

CITY           SKY/WX    TMP DP  RH WIND       PRES   REMARKS
GERALDTON      FLURRIES  -2  -6  84 N5        29.76F WCI -12
THUNDER BAY    FLURRIES  12   7  79 W5        29.81S WCI   4
SIOUX LOOKOUT  FLURRIES   0  -6  78 N3        29.84R
TORONTO        PTCLDY    12   7  79 SW8       29.93F WCI   1
BIG TROUT LK   CLOUDY   -15 -20  76 NW8       29.89F WCI -32
PICKLE LAKE    NOT AVBL
DRYDEN         CLEAR      0  -4  85 NW5       29.85R WCI -10
KENORA         FLURRIES   0  -4  85 N6        29.87F WCI -12
$$
                *** MANITOBA***

CITY           SKY/WX    TMP DP  RH WIND       PRES   REMARKS
BRANDON        FLURRIES  18  16  93 SE6       29.83F WCI   9
DAUPHIN        FLURRIES  16  14  93 SE7       29.83F WCI   6
ISLAND LAKE    NOT AVBL
PILOT MOUND      N/A     18  14  86 SE8         N/A  WCI   7
THE PAS        FLURRIES   5   1  85 E10       29.84F WCI -10
THOMPSON       MOCLDY   -24 -29  76 W2        29.94S FOG
WINNIPEG       FLURRIES   9   5  85 NE3       29.93F
LYNN LAKE      CLOUDY    -8  -9  92 SW3       29.85F
CHURCHILL      MOCLDY   -13 -17  84 W6        29.96F WCI -27
GILLAM         FLURRIES -11 -17  77 SW5       29.93F WCI -23
$$
                ***SASKATCHEWAN***

CITY           SKY/WX    TMP DP  RH WIND       PRES   REMARKS
ESTEVAN        CLOUDY    27  23  86 S9        29.77F WCI  17
KINDERSLEY     MOCLDY    32  23  69 NW3       29.69F
LLOYDMINSTER   CLOUDY    37  30  75 W14       29.62F
PRINCE ALBERT  FLURRIES  28  27  93 E3        29.64F
REGINA         CLOUDY    28  25  86 SE8       29.71F WCI  20
YORKTON        FLURRIES  27  25  93 S7        29.74F WC



USA.gov is the U.S. government's official web portal to all federal, state and local government web resources and services.